Вернуться в каталог

SES 7

PROTOSTAR 2

АктивенСвязьGEO
NORAD 34941·PAYLOAD·🇱🇺 Luxembourg

Запущен May 16, 2009 с Baikonur Cosmodrome

Loading…

TLE

СвежийSource: CelesTrak SupGP

Эпоха: Sep 13, 2026, 23:30 UTC

1 34941C 09027A   26256.97916667 -.00000255  00000+0  00000+0 0  2568
2 34941   0.0436  75.8911 0001442 146.9609 230.8604  1.00270380    18

Отслеживайте SES 7 в реальном времени с AllMySat

Download on the App Store